N2WH Weather Reports


time (UTC)temp
C
wind
direction
speed
KPH
gust
KPH
rain 1hr
cm
rain 24hr
cm
rain mn
cm
humidity
%
barometer
mb
20260505224318 25 191 1.6 1.6 0.00 0.00 0.00 35 1009.1
20260505223814 25 130 3.2 4.8 0.00 0.00 0.00 35 1009.1
20260505223312 25 209 1.6 3.2 0.00 0.00 0.00 36 1009.2
20260505222807 25 114 3.2 3.2 0.00 0.00 0.00 36 1008.9
20260505222305 25 208 1.6 3.2 0.00 0.00 0.00 35 1009.1
20260505221801 26 223 3.2 3.2 0.00 0.00 0.00 34 1009.2
20260505221257 26 132 1.6 1.6 0.00 0.00 0.00 34 1009.0
20260505220754 26 188 3.2 3.2 0.00 0.00 0.00 35 1009.1
20260505220251 25 234 3.2 4.8 0.00 0.00 0.00 34 1009.3
20260505215750 25 195 3.2 3.2 0.00 0.00 0.00 34 1008.9
20260505215247 25 145 0.0 0.0 0.00 0.00 0.00 35 1008.9
20260505214745 26 141 1.6 1.6 0.00 0.00 0.00 34 1008.7
20260505214242 26 186 3.2 3.2 0.00 0.00 0.00 34 1008.7
20260505213739 26 117 1.6 1.6 0.00 0.00 0.00 34 1008.9
20260505213236 26 165 3.2 3.2 0.00 0.00 0.00 32 1008.9
20260505212732 26 244 3.2 3.2 0.00 0.00 0.00 33 1008.7
20260505212230 26 225 4.8 9.7 0.00 0.00 0.00 33 1008.6
20260505211726 26 181 1.6 3.2 0.00 0.00 0.00 32 1008.5
20260505211224 26 339 6.4 9.7 0.00 0.00 0.00 31 1008.4
20260505210720 26 174 1.6 3.2 0.00 0.00 0.00 34 1008.4
20260505210217 26 156 3.2 3.2 0.00 0.00 0.00 34 1008.4
20260505205714 26 284 8.0 11.3 0.00 0.00 0.00 33 1008.2
20260505205213 26 158 4.8 8.0 0.00 0.00 0.00 34 1008.5
20260505204709 27 327 4.8 4.8 0.00 0.00 0.00 34 1008.2
20260505204207 27 253 9.7 11.3 0.00 0.00 0.00 32 1008.5
20260505203704 27 270 4.8 4.8 0.00 0.00 0.00 34 1008.7
20260505203201 27 198 4.8 8.0 0.00 0.00 0.00 34 1008.6
20260505202656 27 175 6.4 8.0 0.00 0.00 0.00 33 1008.7
20260505202153 27 221 4.8 4.8 0.00 0.00 0.00 35 1008.9
20260505201649 27 235 4.8 4.8 0.00 0.00 0.00 35 1008.6
20260505201147 27 205 1.6 3.2 0.00 0.00 0.00 35 1008.6
20260505200645 27 241 6.4 9.7 0.00 0.00 0.00 33 1008.7
20260505200141 27 213 4.8 4.8 0.00 0.00 0.00 33 1008.6
20260505195637 28 191 3.2 3.2 0.00 0.00 0.00 35 1008.7
20260505195135 27 248 6.4 8.0 0.00 0.00 0.00 34 1008.6
20260505194632 27 249 8.0 17.7 0.00 0.00 0.00 33 1008.7
20260505194128 27 223 1.6 3.2 0.00 0.00 0.00 34 1009.0
20260505193625 27 250 4.8 8.0 0.00 0.00 0.00 35 1009.0
20260505193122 27 222 8.0 14.5 0.00 0.00 0.00 34 1009.0
20260505192621 27 282 6.4 9.7 0.00 0.00 0.00 34 1009.1
20260505192117 27 154 3.2 4.8 0.00 0.00 0.00 33 1009.0
20260505191616 28 266 4.8 8.0 0.00 0.00 0.00 33 1009.0
20260505191113 28 157 4.8 4.8 0.00 0.00 0.00 34 1009.0
20260505190609 28 246 3.2 3.2 0.00 0.00 0.00 35 1009.2
20260505190104 28 102 4.8 8.0 0.00 0.00 0.00 35 1009.4
20260505185601 28 231 1.6 3.2 0.00 0.00 0.00 36 1009.4
20260505185057 28 165 4.8 8.0 0.00 0.00 0.00 35 1009.1
20260505184554 28 223 1.6 3.2 0.00 0.00 0.00 37 1009.5
20260505184051 28 232 3.2 4.8 0.00 0.00 0.00 37 1009.7
20260505183547 28 186 3.2 3.2 0.00 0.00 0.00 37 1009.7
20260505183045 28 222 3.2 3.2 0.00 0.00 0.00 35 1009.8
20260505182541 29 273 3.2 4.8 0.00 0.00 0.00 34 1009.7
20260505182038 28 290 1.6 1.6 0.00 0.00 0.00 36 1009.7
20260505181535 27 136 0.0 1.6 0.00 0.00 0.00 38 1009.6
20260505181032 27 180 1.6 1.6 0.00 0.00 0.00 39 1010.0
20260505180528 27 246 3.2 3.2 0.00 0.00 0.00 38 1010.2
20260505180026 27 148 1.6 1.6 0.00 0.00 0.00 39 1010.2
20260505175520 28 74 3.2 3.2 0.00 0.00 0.00 37 1009.8
20260505175018 28 264 4.8 4.8 0.00 0.00 0.00 38 1010.2
20260505174515 27 164 0.0 1.6 0.00 0.00 0.00 43 1010.3
20260505174011 27 199 1.6 1.6 0.00 0.00 0.00 42 1010.3
20260505173508 27 286 4.8 11.3 0.00 0.00 0.00 41 1010.3
20260505173004 27 181 3.2 3.2 0.00 0.00 0.00 39 1010.4
20260505172502 28 170 1.6 1.6 0.00 0.00 0.00 41 1010.4
20260505171957 27 127 0.0 1.6 0.00 0.00 0.00 42 1010.5
20260505171453 27 197 1.6 1.6 0.00 0.00 0.00 43 1010.6
20260505170950 27 224 3.2 4.8 0.00 0.00 0.00 42 1010.5
20260505170447 27 199 4.8 4.8 0.00 0.00 0.00 41 1010.7
20260505165942 26 15 3.2 4.8 0.00 0.00 0.00 45 1010.5
20260505165438 26 205 8.0 9.7 0.00 0.00 0.00 43 1010.6
20260505164934 26 259 4.8 8.0 0.00 0.00 0.00 44 1010.8
20260505164431 26 313 4.8 8.0 0.00 0.00 0.00 45 1010.8
20260505163929 26 102 3.2 3.2 0.00 0.00 0.00 46 1010.8
20260505163427 26 157 1.6 3.2 0.00 0.00 0.00 44 1010.9
20260505162926 26 242 6.4 8.0 0.00 0.00 0.00 45 1010.9
20260505162421 26 155 1.6 1.6 0.00 0.00 0.00 45 1011.0
20260505161919 26 153 1.6 3.2 0.00 0.00 0.00 45 1011.0
20260505161415 26 158 0.0 1.6 0.00 0.00 0.00 46 1011.2
20260505160913 26 163 1.6 1.6 0.00 0.00 0.00 45 1011.1
20260505160411 26 170 1.6 3.2 0.00 0.00 0.00 47 1011.3
20260505153349 25 257 3.2 3.2 0.00 0.00 0.00 48 1011.6
20260505152846 25 171 1.6 1.6 0.00 0.00 0.00 48 1011.5
20260505152343 25 178 3.2 3.2 0.00 0.00 0.00 48 1011.8
20260505151837 25 129 0.0 0.0 0.00 0.00 0.00 50 1011.9
20260505151335 25 153 1.6 3.2 0.00 0.00 0.00 49 1011.8
20260505150831 25 127 0.0 0.0 0.00 0.00 0.00 50 1011.8
20260505150329 23 124 1.6 1.6 0.00 0.00 0.00 51 1011.7
20260505140253 22 179 1.6 1.6 0.00 0.00 0.00 54 1012.0
20260505130217 18 149 0.0 0.0 0.00 0.00 0.00 65 1012.0
20260505124707 18 138 0.0 1.6 0.00 0.00 0.00 66 1011.7
20260505124204 17 138 0.0 0.0 0.00 0.00 0.00 67 1011.5
20260505123659 17 149 1.6 3.2 0.00 0.00 0.00 67 1011.6
20260505123156 17 130 0.0 0.0 0.00 0.00 0.00 68 1011.5
20260505122653 17 148 1.6 1.6 0.00 0.00 0.00 70 1011.8
20260505122150 16 146 0.0 0.0 0.00 0.00 0.00 71 1011.8
20260505121647 16 144 1.6 1.6 0.00 0.00 0.00 72 1011.8
20260505121143 16 135 0.0 0.0 0.00 0.00 0.00 75 1011.9
20260505120639 15 139 0.0 0.0 0.00 0.00 0.00 76 1012.0
20260505120136 15 139 0.0 0.0 0.00 0.00 0.00 77 1011.9
20260505115630 15 136 0.0 0.0 0.00 0.00 0.00 79 1012.2
20260505115128 15 139 0.0 0.0 0.00 0.00 0.00 80 1012.1
20260505114624 14 138 0.0 0.0 0.00 0.00 0.00 81 1011.8
20260505114121 13 116 0.0 0.0 0.00 0.00 0.00 82 1011.9
20260505113617 13 114 0.0 0.0 0.00 0.00 0.00 82 1011.7
20260505113114 13 114 0.0 0.0 0.00 0.00 0.00 82 1011.9
20260505112610 13 135 0.0 1.6 0.00 0.00 0.00 81 1012.0
20260505112108 13 127 0.0 0.0 0.00 0.00 0.00 80 1011.8
20260505111602 14 149 0.0 0.0 0.00 0.00 0.00 80 1011.5
20260505111058 14 132 0.0 0.0 0.00 0.00 0.00 81 1011.6
20260505110555 13 122 0.0 0.0 0.00 0.00 0.00 81 1011.3
20260505102028 13 144 0.0 0.0 0.00 0.00 0.00 74 1011.7
20260505101526 13 136 0.0 0.0 0.00 0.00 0.00 74 1011.7
20260505101022 13 145 0.0 1.6 0.00 0.00 0.00 76 1011.5
20260505100519 12 129 0.0 0.0 0.00 0.00 0.00 77 1011.4
20260505100016 13 129 0.0 1.6 0.00 0.00 0.00 75 1011.4
20260505095512 13 130 0.0 1.6 0.00 0.00 0.00 76 1011.4
20260505095008 12 129 0.0 1.6 0.00 0.00 0.00 77 1011.2
20260505094505 12 139 0.0 0.0 0.00 0.00 0.00 79 1011.4
20260505094001 12 121 0.0 0.0 0.00 0.00 0.00 80 1011.4
20260505093458 12 121 0.0 0.0 0.00 0.00 0.00 79 1011.4
20260505092955 11 121 0.0 0.0 0.00 0.00 0.00 81 1011.3
20260505092452 11 121 0.0 0.0 0.00 0.00 0.00 81 1011.1
20260505091950 11 132 0.0 0.0 0.00 0.00 0.00 81 1010.9
20260505091447 11 132 0.0 0.0 0.00 0.00 0.00 81 1011.1
20260505090945 11 131 0.0 0.0 0.00 0.00 0.00 80 1011.0
20260505090443 11 125 0.0 0.0 0.00 0.00 0.00 81 1011.0
20260505085940 11 125 0.0 0.0 0.00 0.00 0.00 81 1010.9
20260505085438 11 125 0.0 0.0 0.00 0.00 0.00 81 1010.9
20260505084936 11 125 0.0 0.0 0.00 0.00 0.00 80 1010.9
20260505084434 11 125 0.0 0.0 0.00 0.00 0.00 80 1011.0
20260505083932 11 125 0.0 0.0 0.00 0.00 0.00 80 1011.0
20260505083429 11 125 0.0 0.0 0.00 0.00 0.00 80 1011.0
20260505082925 11 121 0.0 0.0 0.00 0.00 0.00 80 1011.0
20260505082421 11 119 0.0 0.0 0.00 0.00 0.00 80 1011.0
20260505081918 11 119 0.0 0.0 0.00 0.00 0.00 79 1011.0
20260505081415 11 119 0.0 0.0 0.00 0.00 0.00 79 1010.7
20260505080911 12 119 0.0 0.0 0.00 0.00 0.00 78 1010.9
20260505080408 12 119 0.0 0.0 0.00 0.00 0.00 78 1010.9
20260505075903 12 124 0.0 0.0 0.00 0.00 0.00 78 1010.9
20260505075400 12 124 0.0 0.0 0.00 0.00 0.00 77 1011.0
20260505074857 12 124 0.0 0.0 0.00 0.00 0.00 77 1011.2
20260505074354 12 124 0.0 0.0 0.00 0.00 0.00 77 1010.9
20260505073852 12 122 0.0 0.0 0.00 0.00 0.00 77 1010.9
20260505073349 12 122 0.0 0.0 0.00 0.00 0.00 77 1011.0
20260505072846 12 124 0.0 0.0 0.00 0.00 0.00 77 1011.0
20260505072342 12 123 0.0 0.0 0.00 0.00 0.00 77 1010.7
20260505071838 12 123 0.0 0.0 0.00 0.00 0.00 77 1010.9
20260505071335 12 127 0.0 0.0 0.00 0.00 0.00 76 1011.0
20260505070834 12 127 0.0 0.0 0.00 0.00 0.00 76 1011.0
20260505070330 12 127 0.0 0.0 0.00 0.00 0.00 75 1010.8
20260505065825 12 129 0.0 0.0 0.00 0.00 0.00 75 1011.0
20260505065322 12 129 0.0 0.0 0.00 0.00 0.00 74 1011.2
20260505064819 13 137 0.0 0.0 0.00 0.00 0.00 73 1011.0
20260505064316 13 124 0.0 1.6 0.00 0.00 0.00 72 1011.0
20260505063814 13 117 0.0 0.0 0.00 0.00 0.00 72 1011.1
20260505063310 13 142 1.6 1.6 0.00 0.00 0.00 71 1011.0
20260505062806 13 140 0.0 0.0 0.00 0.00 0.00 71 1011.0
20260505062304 13 143 0.0 0.0 0.00 0.00 0.00 71 1011.0
20260505061801 13 143 0.0 0.0 0.00 0.00 0.00 71 1011.0
20260505061259 13 177 1.6 1.6 0.00 0.00 0.00 71 1011.2
20260505060756 12 145 0.0 0.0 0.00 0.00 0.00 73 1011.0
20260505060253 12 137 0.0 0.0 0.00 0.00 0.00 74 1011.2
20260505055748 12 133 0.0 0.0 0.00 0.00 0.00 73 1011.4
20260505055245 12 133 0.0 0.0 0.00 0.00 0.00 72 1011.3
20260505054742 12 133 0.0 0.0 0.00 0.00 0.00 72 1011.3
20260505054240 12 137 0.0 0.0 0.00 0.00 0.00 71 1011.0
20260505053738 12 134 0.0 0.0 0.00 0.00 0.00 71 1011.2
20260505053234 12 137 0.0 0.0 0.00 0.00 0.00 70 1011.3
20260505052732 12 131 0.0 0.0 0.00 0.00 0.00 70 1011.3
20260505052228 12 135 0.0 0.0 0.00 0.00 0.00 70 1011.3
20260505051725 12 131 0.0 0.0 0.00 0.00 0.00 69 1011.5
20260505051223 12 126 0.0 0.0 0.00 0.00 0.00 68 1011.5
20260505050721 13 134 0.0 0.0 0.00 0.00 0.00 67 1011.6
20260505050219 13 138 0.0 0.0 0.00 0.00 0.00 66 1011.4
20260505041648 14 139 0.0 0.0 0.00 0.00 0.00 61 1011.5
20260505041146 14 133 0.0 0.0 0.00 0.00 0.00 61 1011.7
20260505040643 14 134 0.0 0.0 0.00 0.00 0.00 61 1011.7
20260505040140 14 134 0.0 0.0 0.00 0.00 0.00 60 1011.6
20260505035636 14 135 0.0 0.0 0.00 0.00 0.00 59 1011.6
20260505035132 15 144 0.0 1.6 0.00 0.00 0.00 58 1011.7
20260505034629 15 132 0.0 0.0 0.00 0.00 0.00 58 1011.5
20260505034126 15 132 0.0 0.0 0.00 0.00 0.00 58 1011.5
20260505033623 15 132 0.0 0.0 0.00 0.00 0.00 57 1011.8
20260505033121 15 131 0.0 0.0 0.00 0.00 0.00 57 1011.7
20260505032619 15 120 0.0 0.0 0.00 0.00 0.00 56 1011.6
20260505032115 15 131 0.0 0.0 0.00 0.00 0.00 56 1011.7
20260505031613 15 142 0.0 0.0 0.00 0.00 0.00 55 1011.7
20260505031109 15 145 0.0 0.0 0.00 0.00 0.00 55 1011.7
20260505030606 15 129 0.0 0.0 0.00 0.00 0.00 54 1011.7
20260505025557 16 133 0.0 0.0 0.00 0.00 0.00 53 1011.7
20260505025057 16 144 3.2 3.2 0.00 0.00 0.00 53 1012.0
20260505024553 16 163 1.6 1.6 0.00 0.00 0.00 52 1011.8
20260505024050 16 191 0.0 1.6 0.00 0.00 0.00 52 1012.1
20260505023548 15 133 0.0 1.6 0.00 0.00 0.00 53 1011.9
20260505023045 15 135 0.0 0.0 0.00 0.00 0.00 54 1011.8
20260505022542 15 134 0.0 0.0 0.00 0.00 0.00 55 1011.8
20260505022040 15 131 0.0 0.0 0.00 0.00 0.00 55 1011.8
20260505021536 15 130 0.0 0.0 0.00 0.00 0.00 55 1011.7
20260505021033 15 137 0.0 0.0 0.00 0.00 0.00 57 1012.0
20260505020532 15 131 0.0 0.0 0.00 0.00 0.00 56 1011.8
20260505020030 15 131 0.0 0.0 0.00 0.00 0.00 56 1011.7
20260505015527 15 131 0.0 0.0 0.00 0.00 0.00 54 1011.8
20260505015024 15 131 0.0 0.0 0.00 0.00 0.00 53 1011.9
20260505014521 16 136 0.0 0.0 0.00 0.00 0.00 53 1011.6
20260505014018 16 131 0.0 0.0 0.00 0.00 0.00 53 1011.7
20260505013515 16 132 0.0 0.0 0.00 0.00 0.00 51 1011.7
20260505013012 16 126 0.0 0.0 0.00 0.00 0.00 50 1011.7
20260505012510 16 132 0.0 0.0 0.00 0.00 0.00 50 1011.6
20260505012007 16 133 0.0 0.0 0.00 0.00 0.00 51 1011.7
20260505011503 16 133 0.0 0.0 0.00 0.00 0.00 50 1011.6
20260505011000 17 165 0.0 0.0 0.00 0.00 0.00 50 1011.4
20260505010455 17 132 0.0 0.0 0.00 0.00 0.00 48 1011.4
20260505005951 17 136 0.0 0.0 0.00 0.00 0.00 49 1011.0
20260505005448 17 133 0.0 0.0 0.00 0.00 0.00 49 1011.0
20260505004946 17 139 0.0 0.0 0.00 0.00 0.00 48 1011.4
20260505004443 17 144 1.6 1.6 0.00 0.00 0.00 47 1011.2
20260505003940 17 141 0.0 0.0 0.00 0.00 0.00 47 1011.1
20260505003437 17 143 0.0 0.0 0.00 0.00 0.00 48 1011.2
20260505002933 17 137 0.0 0.0 0.00 0.00 0.00 47 1011.3
20260505002429 18 141 0.0 0.0 0.00 0.00 0.00 47 1010.9
20260505001928 18 141 0.0 1.6 0.00 0.00 0.00 46 1010.9
20260505001425 18 168 1.6 3.2 0.00 0.00 0.00 45 1010.7
20260505000922 18 132 0.0 0.0 0.00 0.00 0.00 46 1010.6
20260505000420 18 139 1.6 1.6 0.00 0.00 0.00 44 1010.6
20260504235916 18 150 1.6 1.6 0.00 0.00 0.00 43 1010.5
20260504235414 18 126 0.0 1.6 0.00 0.00 0.00 44 1010.6
20260504234910 19 165 1.6 1.6 0.00 0.00 0.00 43 1010.5
20260504234408 19 216 1.6 3.2 0.00 0.00 0.00 43 1010.0
20260504233904 19 166 1.6 1.6 0.00 0.00 0.00 43 1010.1
20260504233359 19 174 0.0 1.6 0.00 0.00 0.00 42 1010.2
20260504232856 20 199 3.2 4.8 0.00 0.00 0.00 41 1010.0
20260504232354 20 184 0.0 1.6 0.00 0.00 0.00 43 1010.1
20260504231850 20 154 1.6 1.6 0.00 0.00 0.00 42 1010.1
20260504231347 20 183 3.2 4.8 0.00 0.00 0.00 41 1009.8
20260504230843 20 225 3.2 3.2 0.00 0.00 0.00 41 1009.7
20260504230341 20 150 1.6 3.2 0.00 0.00 0.00 41 1009.6
20260504225839 20 217 1.6 1.6 0.00 0.00 0.00 41 1009.8
20260504225335 20 155 1.6 1.6 0.00 0.00 0.00 40 1009.6
20260504224833 20 143 0.0 0.0 0.00 0.00 0.00 40 1009.6